Погода в Варваровщине

Россия / Смоленская область     54°56′10″N   32°23′06″E
темп.,
°C
ветер,
м/с
пор.,
м/с
влажн.,
%
обл.,
%
осадки,
мм/ч
давл.,
гПа
погр.,
м
17 апреля, сб
сб1700:00+9всв41092100 1.4 1018384
03:00+9всв4109697 2.4 1018503
06:00+8в499584 0.8 1019459
09:00+9в348596 0.9 1020552
12:00+12всв3571100 0.1 10201021
15:00+11ссв5884100 0.4 1019950
18:00+11св7158198 0.3 10171191
21:00+11всв71478100 0.8 10181098
18 апреля, вс
вс1800:00+9св61480100 0.3 1017858
03:00+8св61379100 0.3 1018679
06:00+7всв4883100 0.3 1019671
09:00+5всв4790100 1.9 1020701
12:00+5св4795100 1.0 1021772
15:00+6св4689100 1.0 1021616
18:00+6св479181 0.0 1022531
21:00+5всв41094100 0.0 1023708
19 апреля, пн
пн1900:00+5св4894100 0.0 1022641
03:00+5св41094100 0.0 1022530
06:00+5всв4993100 0.0 1022589
09:00+6всв41092100 0.1 1022676
12:00+7св5987100 0.1 1022932
15:00+7всв5889100 0.2 1022881
18:00+5всв5995100 0.1 1022849
21:00+4всв51097100 0.2 1021670
20 апреля, вт
вт2000:00+4всв51096100 0.0 1020729
03:00+4всв51195100 0.1 1018676
06:00+5всв51192100 0.0 1017802
09:00+4всв51188100 0.3 1016659
12:00+3всв51095100 0.0 1015628
15:00+2св51196100 0.1 1012518
18:00+1ссв51398100 2.1 1008486
21:00+1ссв61598100 8.1 1003616
21 апреля, ср
ср2100:00+3ссв61398100 5.0 997792
03:00+6св51398100 8.2 993650
06:00+7всв51198100 2.5 991635
09:00+3в3498100 3.1 992437
12:00+3зюз6996100 0.2 994537
15:00+2юз71397100 2.4 999960
18:00+3юз71297100 1.1 1004937
21:00+4юз51297100 1.6 10071061